This is the latest recevied weather packets stored in our database for station/object N7WSS. If no packets are shown the sender has not sent any weather packets the latest 10 day(s).
| Time | Temp. | Humidity | Pressure | Rain* | Wind** | Luminosity | Snow |
|---|---|---|---|---|---|---|---|
| 1777962684 | 14.44° C | 83% | 1013 hPa | 0 mm | - | - | - |
| 1777962381 | 14.44° C | 85% | 1013.1 hPa | 1.27 mm | - | - | - |
| 1777962078 | 14.44° C | 83% | 1013.2 hPa | 1.27 mm | - | - | - |
| 1777961775 | 14.44° C | 83% | 1013.2 hPa | 1.78 mm | - | - | - |
| 1777961473 | 14.44° C | 84% | 1013.2 hPa | 1.78 mm | - | - | - |
| 1777961170 | 15° C | 83% | 1013.6 hPa | 0 mm | - | - | - |
| 1777960562 | 15° C | 81% | 1013.1 hPa | 0 mm | - | - | - |
| 1777960259 | 15° C | 76% | 1013 hPa | 0 mm | - | - | - |
| 1777959956 | 15° C | 76% | 1013 hPa | 0 mm | - | - | - |
| 1777959655 | 15° C | 75% | 1012.9 hPa | 0 mm | - | - | - |
| 1777959351 | 15.56° C | 72% | 1013 hPa | 0 mm | - | - | - |
| 1777959048 | 15.56° C | 70% | 1013 hPa | 0 mm | - | - | - |
| 1777958745 | 16.11° C | 66% | 1013.2 hPa | 0 mm | - | - | - |
| 1777958443 | 16.11° C | 65% | 1013.3 hPa | 0 mm | - | - | - |
| 1777958139 | 16.11° C | 62% | 1013.6 hPa | 0 mm | - | - | - |
| 1777957837 | 16.11° C | 62% | 1013.5 hPa | 0 mm | - | - | - |
| 1777957535 | 16.11° C | 63% | 1013.3 hPa | 0 mm | - | - | - |
| 1777956929 | 15.56° C | 63% | 1013 hPa | 0 mm | - | - | - |
| 1777956626 | 15.56° C | 65% | 1013 hPa | 0 mm | - | - | - |
| 1777956323 | 15° C | 67% | 1013 hPa | 0 mm | - | - | - |
| 1777956020 | 15° C | 71% | 1013.1 hPa | 0 mm | - | - | - |
| 1777955716 | 15° C | 74% | 1013 hPa | 0 mm | - | - | - |
| 1777955413 | 15° C | 75% | 1012.8 hPa | 0 mm | - | - | - |
| 1777955109 | 15° C | 74% | 1012.8 hPa | 0 mm | - | - | - |
| 1777954806 | 15° C | 73% | 1012.8 hPa | 0 mm | - | - | - |
* Rain latest hour (hover to see other rain measurements)
** Current wind speed in m/s (hover to see current wind gust speed)